{"data":{"norad_id":69985,"intl_designator":"2026-159L","name":"STARLINK-38089","alt_names":[],"object_type":"PAYLOAD","status":"ACTIVE","operator":null,"country":"US","launch_date":"2026-07-11","launch_site_code":"AFWTR","launch_vehicle":null,"mission":null,"orbit_class":"UNKNOWN","rcs_meters":null,"size_class":null,"mass_kg":null,"dimensions":null,"purposes":["comms"],"wikipedia_slug":null,"has_3d_model":false,"image_url":null,"decayed_at":null,"tle_current":{"epoch":"2026-09-19T23:55:02.427168Z","epoch_age_seconds":61284,"freshness":"FRESH","line1":"1 69985U 26159L   26262.99655587  .00043382  00000+0  79367-3 0  9996","line2":"2 69985  97.2843 104.7231 0001217 104.3310 255.8076 15.49234378 12364","mean_motion":15.49234378,"eccentricity":0.0001217,"inclination_deg":97.2843,"raan_deg":104.7231,"arg_perigee_deg":104.331,"mean_anomaly_deg":255.8076,"bstar":0.00079367,"rev_number":1236,"period_min":92.949138003185,"perigee_km":418.13733034152,"apogee_km":419.79174485577,"semimajor_km":6797.1015375986,"source":"CELESTRAK","updated_at":"2026-09-20T09:00:44.329746Z"}}}